FW7184 Weather Reports


Display with metric or nautical units.
time (UTC)temp
F
wind
direction
speed
MPH
gust
MPH
rain 1hr
in
rain 24hr
in
rain mn
in
humidity
%
barometer
mb
20260505173507 80 142 0.0 1.0 0.00 0.01 0.01 46 1008.9
20260505173004 80 50 2.0 3.0 0.00 0.01 0.01 47 1009.1
20260505172503 80 102 2.0 3.0 0.00 0.01 0.01 46 1009.4
20260505172002 79 79 0.0 1.0 0.00 0.01 0.01 47 1009.1
20260505171453 80 62 1.0 3.0 0.00 0.01 0.01 46 1009.2
20260505170950 81 168 1.0 2.0 0.00 0.01 0.01 46 1009.2
20260505170447 79 135 0.0 1.0 0.00 0.01 0.01 48 1009.4
20260505165942 79 53 2.0 3.0 0.00 0.01 0.01 47 1009.2
20260505165438 80 128 0.0 0.0 0.00 0.01 0.01 47 1009.7
20260505164933 79 139 1.0 2.0 0.00 0.01 0.01 46 1009.6
20260505164430 79 126 1.0 2.0 0.00 0.01 0.01 48 1009.7
20260505163928 78 153 2.0 2.0 0.00 0.01 0.01 48 1009.7
20260505163421 78 104 0.0 1.0 0.00 0.01 0.01 47 1009.9
20260505162920 78 165 1.0 1.0 0.00 0.01 0.01 47 1010.2
20260505162415 78 93 1.0 2.0 0.00 0.01 0.01 47 1009.9
20260505161912 78 158 1.0 1.0 0.00 0.01 0.01 48 1010.2
20260505161409 77 140 2.0 2.0 0.00 0.01 0.01 48 1010.1
20260505160907 77 138 1.0 1.0 0.00 0.01 0.01 49 1010.3
20260505160405 77 329 3.0 3.0 0.00 0.01 0.01 49 1010.3
20260505153343 76 123 0.0 1.0 0.00 0.01 0.01 52 1010.5
20260505152840 76 113 2.0 3.0 0.00 0.01 0.01 51 1010.5
20260505152338 76 107 0.0 1.0 0.00 0.01 0.01 53 1010.7
20260505151837 75 131 0.0 0.0 0.00 0.01 0.01 51 1010.5
20260505151334 75 199 1.0 2.0 0.00 0.01 0.01 52 1010.8
20260505150831 75 173 2.0 2.0 0.00 0.01 0.01 54 1010.7
20260505150328 74 129 0.0 0.0 0.00 0.01 0.01 53 1010.8
20260505140252 68 118 0.0 0.0 0.00 0.01 0.01 65 1011.3
20260505130216 63 133 0.0 0.0 0.00 0.01 0.01 73 1010.7
20260505124706 61 127 0.0 0.0 0.00 0.01 0.01 77 1011.0
20260505124203 61 106 0.0 1.0 0.00 0.01 0.01 79 1011.0
20260505123659 60 123 0.0 1.0 0.00 0.01 0.01 81 1010.9
20260505123156 59 122 0.0 1.0 0.00 0.01 0.01 83 1011.2
20260505122653 57 136 0.0 0.0 0.00 0.01 0.01 89 1011.0
20260505122150 57 127 0.0 0.0 0.00 0.01 0.01 92 1011.2
20260505121646 57 134 0.0 0.0 0.00 0.01 0.01 93 1010.9
20260505121143 56 134 0.0 0.0 0.00 0.01 0.01 93 1010.9
20260505120639 56 140 0.0 0.0 0.00 0.01 0.01 94 1010.7
20260505120136 56 130 0.0 0.0 0.00 0.01 0.01 93 1010.5
20260505115629 56 150 1.0 1.0 0.00 0.01 0.01 91 1010.4
20260505115127 56 141 1.0 1.0 0.00 0.01 0.01 88 1010.5
20260505114624 57 127 0.0 0.0 0.07 0.01 0.01 88 1011.0
20260505114120 57 126 0.0 1.0 0.00 0.00 0.00 84 1011.5
20260505113617 57 126 0.0 0.0 0.00 0.00 0.00 84 1011.3
20260505113114 58 132 0.0 0.0 0.00 0.00 0.00 82 1011.8
20260505112610 57 136 0.0 0.0 0.00 0.00 0.00 81 1011.8
20260505112108 57 134 0.0 0.0 0.00 0.00 0.00 81 1011.2
20260505111602 57 130 0.0 0.0 0.00 0.00 0.00 83 1011.3
20260505111058 57 134 0.0 0.0 0.00 0.00 0.00 84 1011.5
20260505110554 55 129 0.0 0.0 0.00 0.00 0.00 85 1011.3
20260505102021 51 136 0.0 0.0 0.00 0.00 0.00 91 1010.9
20260505101520 51 138 0.0 0.0 0.00 0.00 0.00 91 1011.1
20260505101015 51 133 0.0 0.0 0.00 0.00 0.00 91 1010.8
20260505100513 52 137 0.0 0.0 0.00 0.00 0.00 91 1010.8
20260505100010 52 132 0.0 0.0 0.00 0.00 0.00 91 1010.6
20260505095506 51 145 0.0 0.0 0.00 0.00 0.00 90 1010.6
20260505095002 51 137 0.0 0.0 0.00 0.00 0.00 90 1010.4
20260505094459 51 136 0.0 0.0 0.00 0.00 0.00 90 1010.3
20260505093955 52 138 0.0 0.0 0.00 0.00 0.00 90 1010.1
20260505093452 52 138 0.0 0.0 0.00 0.00 0.00 90 1010.2
20260505092949 52 143 0.0 0.0 0.00 0.00 0.00 89 1010.2
20260505092446 52 137 0.0 0.0 0.00 0.00 0.00 89 1010.3
20260505091944 52 137 0.0 0.0 0.00 0.00 0.00 89 1010.2
20260505091441 52 136 0.0 0.0 0.00 0.00 0.00 89 1010.2
20260505090939 52 138 0.0 0.0 0.00 0.00 0.00 88 1010.1
20260505090437 52 144 0.0 0.0 0.00 0.00 0.00 88 1010.1
20260505085934 52 125 0.0 0.0 0.00 0.00 0.00 88 1010.2
20260505085432 52 138 0.0 0.0 0.00 0.00 0.00 89 1010.1
20260505084930 52 141 0.0 0.0 0.00 0.00 0.00 89 1010.3
20260505084428 51 134 0.0 0.0 0.00 0.00 0.00 88 1010.0
20260505083926 52 135 0.0 0.0 0.00 0.00 0.00 88 1010.1
20260505083423 52 136 0.0 0.0 0.00 0.00 0.00 88 1010.3
20260505082919 52 134 0.0 0.0 0.00 0.00 0.00 87 1010.2
20260505082415 52 134 0.0 0.0 0.00 0.00 0.00 87 1010.2
20260505081912 52 134 0.0 0.0 0.00 0.00 0.00 87 1010.1
20260505081409 52 141 0.0 0.0 0.00 0.00 0.00 87 1010.4
20260505080905 52 136 0.0 0.0 0.00 0.00 0.00 86 1010.2
20260505080401 53 133 0.0 0.0 0.00 0.00 0.00 86 1010.3
20260505075857 53 131 0.0 0.0 0.00 0.00 0.00 86 1010.4
20260505075354 52 148 0.0 0.0 0.00 0.00 0.00 86 1010.3
20260505074851 52 148 0.0 0.0 0.00 0.00 0.00 86 1010.3
20260505074348 52 148 0.0 0.0 0.00 0.00 0.00 86 1010.4
20260505073846 52 148 0.0 0.0 0.00 0.00 0.00 85 1010.5
20260505073343 52 148 0.0 0.0 0.00 0.00 0.00 85 1010.2
20260505072840 52 149 0.0 0.0 0.00 0.00 0.00 85 1010.1
20260505072336 52 124 0.0 0.0 0.00 0.00 0.00 86 1010.4
20260505071832 52 124 0.0 0.0 0.00 0.00 0.00 86 1010.1
20260505071329 52 134 0.0 0.0 0.00 0.00 0.00 86 1010.0
20260505070827 52 133 0.0 0.0 0.00 0.00 0.00 86 1010.2
20260505070323 52 123 0.0 0.0 0.00 0.00 0.00 86 1010.1
20260505065819 52 133 0.0 0.0 0.00 0.00 0.00 85 1010.1
20260505065316 52 136 0.0 0.0 0.00 0.00 0.00 85 1010.1
20260505064813 52 135 0.0 0.0 0.00 0.00 0.00 85 1010.2
20260505064310 52 135 0.0 0.0 0.00 0.00 0.00 85 1010.1
20260505063808 52 134 0.0 0.0 0.00 0.00 0.00 85 1010.3
20260505063304 52 141 0.0 0.0 0.00 0.00 0.00 84 1010.5
20260505062800 52 117 0.0 1.0 0.00 0.00 0.00 84 1010.4
20260505062258 52 123 0.0 1.0 0.00 0.00 0.00 84 1010.5
20260505061754 52 136 0.0 0.0 0.00 0.00 0.00 84 1010.5
20260505061252 52 133 0.0 0.0 0.00 0.00 0.00 83 1010.3
20260505060750 52 131 0.0 0.0 0.00 0.00 0.00 84 1010.7
20260505060247 52 133 0.0 0.0 0.00 0.00 0.00 83 1010.4
20260505055742 52 133 0.0 0.0 0.00 0.00 0.00 83 1010.5
20260505055238 52 135 0.0 0.0 0.00 0.00 0.00 83 1010.7
20260505054736 52 134 0.0 0.0 0.00 0.00 0.00 83 1010.3
20260505054234 52 131 0.0 0.0 0.00 0.00 0.00 83 1010.6
20260505053732 52 132 0.0 0.0 0.00 0.00 0.00 83 1010.4
20260505053228 52 129 0.0 0.0 0.00 0.00 0.00 83 1010.5
20260505052725 52 132 0.0 0.0 0.00 0.00 0.00 83 1010.5
20260505052222 53 139 0.0 0.0 0.00 0.00 0.00 82 1010.7
20260505051719 53 134 0.0 0.0 0.00 0.00 0.00 81 1010.7
20260505051217 53 134 0.0 0.0 0.00 0.00 0.00 81 1010.7
20260505050715 53 139 0.0 0.0 0.00 0.00 0.00 81 1010.7
20260505050213 53 134 0.0 0.0 0.00 0.00 0.00 81 1010.7
20260505041643 55 137 0.0 0.0 0.00 0.00 0.00 79 1010.8
20260505041140 55 130 0.0 0.0 0.00 0.00 0.00 76 1010.9
20260505040637 55 133 0.0 0.0 0.00 0.00 0.00 76 1010.7
20260505040134 55 132 0.0 0.0 0.00 0.00 0.00 77 1010.8
20260505035630 55 132 0.0 0.0 0.00 0.00 0.00 76 1010.8
20260505035126 55 132 0.0 0.0 0.00 0.00 0.00 76 1010.6
20260505034623 56 134 0.0 0.0 0.00 0.00 0.00 74 1010.8
20260505034120 56 132 0.0 0.0 0.00 0.00 0.00 74 1010.9
20260505033617 56 132 0.0 0.0 0.00 0.00 0.00 74 1010.7
20260505033116 56 124 0.0 0.0 0.00 0.00 0.00 75 1011.1
20260505032613 55 132 0.0 0.0 0.00 0.00 0.00 76 1010.9
20260505032109 55 132 0.0 0.0 0.00 0.00 0.00 77 1010.8
20260505031606 55 133 0.0 0.0 0.00 0.00 0.00 77 1010.8
20260505031103 55 140 0.0 0.0 0.00 0.00 0.00 76 1010.7
20260505030600 55 132 0.0 0.0 0.00 0.00 0.00 79 1010.7
20260505030055 55 138 0.0 0.0 0.00 0.00 0.00 79 1010.8
20260505025551 54 131 0.0 0.0 0.00 0.00 0.00 80 1010.7
20260505025051 54 131 0.0 0.0 0.00 0.00 0.00 81 1010.9
20260505024547 54 128 0.0 0.0 0.00 0.00 0.00 82 1010.7
20260505024044 54 130 0.0 0.0 0.00 0.00 0.00 82 1010.7
20260505023541 53 115 0.0 0.0 0.00 0.00 0.00 82 1010.7
20260505023039 53 132 0.0 0.0 0.00 0.00 0.00 82 1011.1
20260505022536 54 131 0.0 0.0 0.00 0.00 0.00 82 1011.1
20260505022033 54 131 0.0 0.0 0.00 0.00 0.00 82 1011.0
20260505021529 54 127 0.0 0.0 0.00 0.00 0.00 81 1010.9
20260505021021 54 120 1.0 1.0 0.00 0.00 0.00 81 1010.9
20260505020520 54 135 0.0 0.0 0.00 0.00 0.00 81 1011.0
20260505020018 54 130 0.0 0.0 0.00 0.00 0.00 81 1010.9
20260505015515 54 130 0.0 0.0 0.00 0.00 0.00 80 1011.0
20260505015012 54 130 0.0 0.0 0.00 0.00 0.00 80 1010.8
20260505014509 55 128 0.0 0.0 0.00 0.00 0.00 79 1010.8
20260505014006 55 129 0.0 0.0 0.00 0.00 0.00 79 1010.9
20260505013503 55 127 0.0 0.0 0.00 0.00 0.00 78 1010.7
20260505013000 55 130 0.0 0.0 0.00 0.00 0.00 77 1010.8
20260505012458 56 130 0.0 0.0 0.00 0.00 0.00 77 1010.7
20260505011955 56 130 0.0 0.0 0.00 0.00 0.00 76 1010.7
20260505011450 56 130 0.0 0.0 0.00 0.00 0.00 75 1010.7
20260505010948 56 129 0.0 0.0 0.00 0.00 0.00 75 1010.6
20260505010443 57 126 0.0 0.0 0.00 0.00 0.00 74 1010.5
20260505005939 57 130 0.0 0.0 0.00 0.00 0.00 73 1010.4
20260505005436 57 132 0.0 0.0 0.00 0.00 0.00 73 1010.4
20260505004934 57 126 0.0 0.0 0.00 0.00 0.00 72 1010.4
20260505004430 58 130 0.0 0.0 0.00 0.00 0.00 72 1010.3
20260505003928 58 130 0.0 0.0 0.00 0.00 0.00 70 1010.0
20260505003425 59 131 0.0 0.0 0.00 0.00 0.00 69 1010.2
20260505002921 59 131 0.0 0.0 0.00 0.00 0.00 69 1010.0
20260505002417 59 126 0.0 0.0 0.00 0.00 0.00 68 1009.8
20260505001916 60 132 0.0 0.0 0.00 0.00 0.00 67 1009.6
20260505001413 60 130 0.0 0.0 0.00 0.00 0.00 66 1009.5
20260505000910 60 132 0.0 0.0 0.00 0.00 0.00 65 1009.4
20260505000408 61 123 0.0 0.0 0.00 0.00 0.00 65 1009.5
20260504235904 61 132 0.0 0.0 0.00 0.00 0.00 63 1009.4
20260504235402 62 125 0.0 0.0 0.00 0.00 0.00 62 1009.3
20260504234857 62 123 0.0 0.0 0.00 0.00 0.00 61 1009.3
20260504234355 62 129 0.0 0.0 0.00 0.00 0.00 61 1009.0
20260504233852 63 127 0.0 0.0 0.00 0.00 0.00 60 1009.2
20260504233347 63 89 0.0 1.0 0.00 0.00 0.00 59 1009.0
20260504232844 64 129 0.0 0.0 0.00 0.00 0.00 58 1008.9
20260504232341 64 131 0.0 0.0 0.00 0.00 0.00 58 1008.9
20260504231838 64 118 0.0 0.0 0.00 0.00 0.00 58 1008.7
20260504231335 65 123 0.0 0.0 0.00 0.00 0.00 57 1008.8
20260504230831 65 123 0.0 1.0 0.00 0.00 0.00 56 1008.8
20260504230329 65 125 0.0 0.0 0.00 0.00 0.00 56 1008.7
20260504225827 66 126 0.0 0.0 0.00 0.00 0.00 55 1008.8
20260504225323 66 112 0.0 0.0 0.00 0.00 0.00 54 1008.6
20260504224821 66 127 0.0 1.0 0.00 0.00 0.00 53 1008.5
20260504224318 68 126 0.0 0.0 0.00 0.00 0.00 52 1008.7
20260504223814 69 127 0.0 1.0 0.00 0.00 0.00 48 1008.6
20260504223310 70 108 0.0 0.0 0.00 0.00 0.00 43 1008.6
20260504222807 70 112 0.0 0.0 0.00 0.00 0.00 40 1008.7
20260504222305 70 108 0.0 0.0 0.00 0.00 0.00 40 1008.7
20260504221802 70 107 0.0 1.0 0.00 0.00 0.00 40 1008.5
20260504221258 70 143 2.0 3.0 0.00 0.00 0.00 38 1008.6
20260504220755 71 132 1.0 1.0 0.00 0.00 0.00 38 1008.8
20260504220252 71 147 0.0 1.0 0.00 0.00 0.00 38 1008.8
20260504215749 71 137 0.0 0.0 0.00 0.00 0.00 39 1008.6
20260504215246 71 148 0.0 0.0 0.00 0.00 0.00 38 1008.8
20260504214742 71 130 0.0 0.0 0.00 0.00 0.00 39 1008.7
20260504214238 72 150 0.0 0.0 0.00 0.00 0.00 37 1008.9
20260504213735 71 136 1.0 2.0 0.00 0.00 0.00 38 1008.7
20260504213231 71 111 0.0 1.0 0.00 0.00 0.00 38 1009.0
20260504212729 71 58 1.0 2.0 0.00 0.00 0.00 38 1008.9
20260504212225 72 133 0.0 1.0 0.00 0.00 0.00 36 1009.1
20260504211723 72 135 1.0 1.0 0.00 0.00 0.00 38 1009.1
20260504211219 72 120 0.0 0.0 0.00 0.00 0.00 38 1009.2
20260504210717 71 103 0.0 1.0 0.00 0.00 0.00 38 1008.9
20260504210213 71 108 0.0 1.0 0.00 0.00 0.00 37 1009.1
20260504205710 71 115 1.0 1.0 0.00 0.00 0.00 39 1008.9
20260504205208 71 81 0.0 0.0 0.00 0.00 0.00 37 1009.0
20260504204706 72 98 1.0 1.0 0.00 0.00 0.00 37 1009.0
20260504204205 71 125 0.0 1.0 0.00 0.00 0.00 36 1009.2
20260504203703 72 126 0.0 1.0 0.00 0.00 0.00 36 1009.0
20260504203200 72 116 3.0 3.0 0.00 0.00 0.00 38 1009.0
20260504202654 72 133 1.0 1.0 0.00 0.00 0.00 38 1009.2
20260504202152 72 216 2.0 2.0 0.00 0.00 0.00 36 1009.2
20260504201649 72 155 1.0 1.0 0.00 0.00 0.00 36 1009.2
20260504201146 72 121 1.0 1.0 0.00 0.00 0.00 36 1009.1
20260504200643 71 130 0.0 1.0 0.00 0.00 0.00 40 1009.2
20260504200140 72 106 0.0 0.0 0.00 0.00 0.00 38 1009.3
20260504195636 72 118 0.0 0.0 0.00 0.00 0.00 39 1009.4
20260504195132 72 118 0.0 1.0 0.00 0.00 0.00 37 1009.5
20260504194629 72 134 2.0 3.0 0.00 0.00 0.00 36 1009.5
20260504194125 73 85 2.0 2.0 0.00 0.00 0.00 37 1009.4
20260504193622 73 100 1.0 2.0 0.00 0.00 0.00 36 1009.7
20260504193120 73 157 2.0 3.0 0.00 0.00 0.00 36 1009.5
20260504192618 72 119 0.0 1.0 0.00 0.00 0.00 40 1009.4
20260504192115 72 138 1.0 1.0 0.00 0.00 0.00 38 1009.5
20260504191614 72 250 0.0 1.0 0.00 0.00 0.00 37 1009.7
20260504191109 72 136 2.0 2.0 0.00 0.00 0.00 38 1009.5
20260504190606 72 150 2.0 2.0 0.00 0.00 0.00 38 1009.8
20260504185559 72 153 2.0 3.0 0.00 0.00 0.00 35 1009.9
20260504185055 72 155 2.0 2.0 0.00 0.00 0.00 37 1010.0
20260504184551 72 196 1.0 2.0 0.00 0.00 0.00 39 1010.2
20260504184046 72 128 0.0 0.0 0.00 0.00 0.00 36 1010.1
20260504183544 72 170 1.0 2.0 0.00 0.00 0.00 35 1010.2
20260504183042 71 220 1.0 3.0 0.00 0.00 0.00 36 1010.2
20260504182538 71 127 2.0 2.0 0.00 0.00 0.00 37 1010.2
20260504182036 71 129 0.0 0.0 0.00 0.00 0.00 36 1010.5
20260504181533 72 200 2.0 3.0 0.00 0.00 0.00 34 1010.3
20260504181031 72 148 4.0 6.0 0.00 0.00 0.00 35 1010.2
20260504180530 71 80 2.0 2.0 0.00 0.00 0.00 38 1010.3
20260504180028 71 154 1.0 1.0 0.00 0.00 0.00 35 1010.2
20260504175525 71 212 3.0 5.0 0.00 0.00 0.00 35 1010.7
20260504175022 70 142 0.0 1.0 0.00 0.00 0.00 36 1010.6
20260504174520 70 42 1.0 2.0 0.00 0.00 0.00 37 1010.7
20260504174016 70 95 2.0 3.0 0.00 0.00 0.00 35 1010.9